Skip Page Navigation
NASA JPL Caltech
NASA Logo - Jet Propulsion Laboratory + View the NASA Portal
+ Center for Near-Earth Object Studies
JPL Home Earth Solar System Stars & Galaxies Technology
JPL Solar System Dynamics
BODIES ORBITS EPHEMERIDES TOOLS PHYSICAL DATA DISCOVERY FAQ SITE MAP
JPL Small-Body Database Browser
Search: [ help ]  
214008 (2004 CJ36)
Classification: Main-belt Asteroid          SPK-ID: 2214008
Ephemeris | Orbit Diagram | Orbital Elements | Mission Design | Physical Parameters | Discovery Circumstances | Close-Approach Data ]

[ show orbit diagram ]
Orbital Elements at Epoch 2459000.5 (2020-May-31.0) TDB
Reference: JPL 16 (heliocentric ecliptic J2000)
 Element Value Uncertainty (1-sigma)   Units 
e .1752169787053917 4.7073e-08  
a 2.786386730605354 2.0796e-08 au
q 2.29816446616389 1.2833e-07 au
i 8.653593188021103 4.9559e-06 deg
node 80.39006078858812 3.5367e-05 deg
peri 41.19034067619734 3.8296e-05 deg
M 201.6906156420214 1.5145e-05 deg
tp 2459747.575812756733
(2022-Jun-17.07581276)
7.5e-05 TDB
period 1698.871445196605
4.65
1.9019e-05
5.207e-08
d
yr
n .2119053804911874 2.3723e-09 deg/d
Q 3.274608995046818 2.4439e-08 au
  Orbit Determination Parameters
   # obs. used (total)      448  
   data-arc span      5758 days (15.76 yr)  
   first obs. used      2002-09-05  
   last obs. used      2018-06-11  
   planetary ephem.      DE431  
   SB-pert. ephem.      SB431-N16  
   condition code      0  
   norm. resid. RMS      .54177  
   source      ORB  
   producer      Otto Matic  
   solution date      2019-Jul-13 12:58:12  

Additional Information
 Earth MOID = 1.32225 au 
 Jupiter MOID = 1.86157 au 
 T_jup = 3.292 
[ show covariance matrix ]

Ephemeris | Orbit Diagram | Orbital Elements | Mission Design | Physical Parameters | Discovery Circumstances | Close-Approach Data ]

Physical Parameter Table
Parameter Symbol Value Units Sigma Reference Notes
absolute magnitude H 15.8   n/a MPO437025  

214008 (2004 CJ36)          Discovered 2004-Feb-11 by NEAT at Palomar
Reference: 20090509/Numbers.arcLast Updated: 2009-05-11

[ show close-approach data ]
Ephemeris | Orbit Diagram | Orbital Elements | Mission Design | Physical Parameters | Discovery Circumstances | Close-Approach Data ]
ABOUT SSD CREDITS/AWARDS PRIVACY/COPYRIGHT GLOSSARY LINKS
FirstGov 2020-Aug-13 17:56 UT
(server date/time)  
NASA Home Page
Site Manager:   Ryan S. Park
Webmaster  Alan B. Chamberlin